Flag for U.S.A. Weather past 2 weeks in Fort Worth, Texas, U.S.A.

Now
82 °F

Passing clouds.


Feels Like: 86 °F
Forecast: 73 / 84 °F
Wind: 9 mph from South

Location: Meacham International Airport

Current Time: May 28, 2015 at 11:43:10 AM

Latest Report: May 28, 2015 at 10:53 AM


Visibility: 10 mi

Pressure: 30.05 "Hg

Humidity: 70%

Dew point: 71 °F

Location of Fort WorthLocation

Historic Weather in Fort Worth — Graph

°F

Fort Worth temperature yesterday

Maximum temperature yesterday: 85 °F (at 2:53 PM)
Minimum temperature yesterday: 63 °F (at 6:53 AM)
Average temperature yesterday: 74 °F

Past Weeks' High & Low Weather Summary

 TemperatureHumidityPressure
High90 °F (May 18, 4:53 PM)100% (May 26, 5:03 AM)30.22 "Hg (May 26, 5:03 AM)
Low56 °F (May 21, 4:58 AM)47% (May 18, 4:53 PM)29.68 "Hg (May 16, 6:53 PM)
Average72 °F83%29.96 "Hg
* Reported May 13 9:53 AM — May 28 9:53 AM, Fort Worth, Weather by CustomWeather, © 2015

Note: Actual official high and low records may vary slightly from our data, if they occured in-between our weather recording intervals... More about our weather records

Advertising

Fort Worth weather history for previous 24 hours

 ConditionsComfort  
Time TempWeatherWind HumidityBarometerVisibility
9:53 AM
Thu, May 28
79 °FPartly sunny.8 mph77%30.05 "Hg10 mi
8:53 AM76 °FPassing clouds.10 mph85%30.04 "Hg10 mi
7:53 AM74 °FSunny.8 mph88%30.01 "Hg10 mi
6:53 AM74 °FPassing clouds.8 mph88%30.01 "Hg10 mi
5:53 AM75 °FOvercast.8 mph88%29.99 "Hg10 mi
4:53 AM75 °FMostly cloudy.7 mph90%30.00 "Hg9 mi
3:53 AM74 °FMostly cloudy.8 mph94%30.00 "Hg9 mi
2:53 AM74 °FMostly cloudy.8 mph94%29.99 "Hg10 mi
1:53 AM74 °FClear.9 mph94%30.00 "Hg10 mi
12:53 AM73 °FClear.7 mph90%30.00 "Hg10 mi
11:53 PM
Wed, May 27
72 °FClear.8 mph91%29.99 "Hg10 mi
10:53 PM70 °FClear.No wind90%30.00 "Hg10 mi
9:53 PM71 °FClear.3 mph84%29.98 "Hg10 mi
9:00 PM71 °FThunderstorms. Partly sunny.13 mph87%30.04 "Hg10 mi
8:02 PM72 °FStrong thunderstorms. Fog.12 mph87%30.02 "Hg1 mi
7:53 PM71 °FStrong thunderstorms. Fog.22 mph93%30.01 "Hg1 mi
6:53 PM83 °FThunderstorms. Mostly cloudy.12 mph68%29.95 "Hg10 mi
5:53 PM84 °FOvercast.12 mph65%29.95 "Hg10 mi
4:53 PM84 °FScattered clouds.12 mph63%29.98 "Hg10 mi
3:53 PM85 °FPartly sunny.8 mph59%30.00 "Hg10 mi
2:53 PM85 °FScattered clouds.9 mph59%30.01 "Hg10 mi
1:53 PM84 °FOvercast.6 mph59%30.03 "Hg10 mi
12:53 PM83 °FScattered clouds.14 mph59%30.05 "Hg10 mi
11:53 AM81 °FSunny.12 mph60%30.06 "Hg10 mi
Weather by CustomWeather, © 2015

See weather overviewHow to use our weather pages